Location: *
(39.6167°S, 171.5333°W)
Time: 05:26:21
(UTC+00:00)

Cosmos 1954 Rocket - Pass Details

Date: 13 May 2021
Orbit: 751 x 782 km, 74.0° (Epoch: 16 June)

Event Time Altitude Azimuth Distance (km) Brightness Sun altitude
Rises 16:28:32 0° 339° (NNW) 3,260 7.1 -21.9°
Reaches altitude 10° 16:30:55 10° 338° (NNW) 2,339 6.3 -21.5°
Maximum altitude 16:36:14 78° 251° (WSW) 810 3.9 -20.4°
Drops below altitude 10° 16:41:38 10° 164° (SSE) 2,358 6.6 -19.4°
Sets 16:44:02 0° 162° (SSE) 3,289 7.4 -19.0°
